This is the latest recevied weather packets stored in our database for station/object SQ7IQO. If no packets are shown the sender has not sent any weather packets the latest 10 day(s).
| Time | Temp. | Humidity | Pressure | Rain* | Wind** | Luminosity | Snow |
|---|---|---|---|---|---|---|---|
| 1787819860 | 22.22° C | 54% | 1024.6 hPa | 0 mm | 0 m/s | - | - |
| 1787819799 | 21.67° C | 53% | 1024.6 hPa | 0 mm | 0.45 m/s, ° | - | - |
| 1787819739 | 21.67° C | 53% | 1024.6 hPa | 0 mm | 0.45 m/s, ° | - | - |
| 1787819679 | 21.67° C | 53% | 1024.6 hPa | 0 mm | 0.89 m/s, ° | - | - |
| 1787819619 | 21.67° C | 50% | 1024.6 hPa | 0 mm | 0.45 m/s, ° | - | - |
| 1787819560 | 22.22° C | 54% | 1024.6 hPa | 0 mm | 0.89 m/s, ° | - | - |
| 1787819499 | 22.22° C | 53% | 1024.6 hPa | 0 mm | 0 m/s | - | - |
| 1787819439 | 22.22° C | 52% | 1024.6 hPa | 0 mm | 0.45 m/s, ° | - | - |
| 1787819379 | 22.22° C | 52% | 1024.6 hPa | 0 mm | 0.45 m/s, ° | - | - |
| 1787819319 | 22.78° C | 53% | 1024.6 hPa | 0 mm | 0.45 m/s, ° | - | - |
| 1787819259 | 22.78° C | 51% | 1024.6 hPa | 0 mm | 0 m/s | - | - |
| 1787819199 | 22.78° C | 51% | 1024.6 hPa | 0 mm | 0 m/s | - | - |
| 1787819139 | 22.78° C | 53% | 1024.6 hPa | 0 mm | 0.45 m/s, ° | - | - |
| 1787819080 | 22.78° C | 52% | 1024.6 hPa | 0 mm | 0 m/s | - | - |
| 1787819019 | 22.22° C | 52% | 1024.6 hPa | 0 mm | 0 m/s | - | - |
| 1787818959 | 22.22° C | 53% | 1024.6 hPa | 0 mm | 0 m/s | - | - |
| 1787818899 | 22.22° C | 53% | 1024.6 hPa | 0 mm | 0 m/s | - | - |
| 1787818839 | 23.33° C | 49% | 1024.6 hPa | 0 mm | 0.45 m/s, ° | - | - |
| 1787818780 | 23.33° C | 51% | 1024.7 hPa | 0 mm | 0 m/s | - | - |
| 1787818719 | 23.33° C | 51% | 1024.7 hPa | 0 mm | 0 m/s | - | - |
| 1787818660 | 23.33° C | 49% | 1024.7 hPa | 0 mm | 0 m/s | - | - |
| 1787818599 | 23.33° C | 52% | 1024.6 hPa | 0 mm | 0 m/s | - | - |
| 1787818539 | 22.78° C | 53% | 1024.7 hPa | 0 mm | 0 m/s | - | - |
| 1787818479 | 22.22° C | 53% | 1024.6 hPa | 0 mm | 0 m/s | - | - |
| 1787818419 | 22.22° C | 52% | 1024.7 hPa | 0 mm | 0 m/s | - | - |
* Rain latest hour (hover to see other rain measurements)
** Current wind speed in m/s (hover to see current wind gust speed)